This is the latest recevied weather packets stored in our database for station/object W5HKR. If no packets are shown the sender has not sent any weather packets the latest 10 day(s).
| Time | Temp. | Humidity | Pressure | Rain* | Wind** | Luminosity | Snow |
|---|---|---|---|---|---|---|---|
| 1777743197 | 21.67° C | 45% | 993.6 hPa | 0 mm | - | - | - |
| 1777742898 | 18.33° C | 91% | 990.6 hPa | 0 mm | - | - | - |
| 1777742598 | 22.22° C | 49% | 994 hPa | 0 mm | - | - | - |
| 1777742297 | 21.67° C | 48% | 993.7 hPa | 0 mm | - | - | - |
| 1777742149 | 18.33° C | 91% | 990.6 hPa | 0 mm | - | - | - |
| 1777741998 | 21.67° C | 50% | 993.9 hPa | 0 mm | - | - | - |
| 1777741698 | 18.33° C | 91% | 990.6 hPa | 0 mm | - | - | - |
| 1777741399 | 18.33° C | 91% | 990.6 hPa | 0 mm | - | - | - |
| 1777741099 | 21.11° C | 48% | 993.8 hPa | 0 mm | - | - | - |
| 1777741068 | 18.33° C | 91% | 990.6 hPa | 0 mm | - | - | - |
| 1777740798 | 21.11° C | 46% | 994.2 hPa | 0 mm | - | - | - |
| 1777740499 | 21.11° C | 50% | 994.2 hPa | 0 mm | - | - | - |
| 1777740198 | 21.11° C | 49% | 994.2 hPa | 0 mm | - | - | - |
| 1777739988 | 21.11° C | 47% | 994.2 hPa | 0 mm | - | - | - |
| 1777739897 | 18.33° C | 91% | 990.6 hPa | 0 mm | - | - | - |
| 1777739597 | 21.11° C | 47% | 994.2 hPa | 0 mm | - | - | - |
| 1777739299 | 18.33° C | 91% | 990.6 hPa | 0 mm | - | - | - |
| 1777738998 | 20.56° C | 47% | 994.6 hPa | 0 mm | - | - | - |
| 1777738908 | 18.33° C | 91% | 990.6 hPa | 0 mm | - | - | - |
| 1777738698 | 20° C | 51% | 994.6 hPa | 0 mm | - | - | - |
| 1777738397 | 18.33° C | 91% | 990.6 hPa | 0 mm | - | - | - |
| 1777738100 | 20° C | 52% | 994.2 hPa | 0 mm | - | - | - |
| 1777737830 | 18.33° C | 91% | 990.6 hPa | 0 mm | - | - | - |
| 1777737798 | 18.33° C | 91% | 990.6 hPa | 0 mm | - | - | - |
| 1777737500 | 18.33° C | 91% | 990.6 hPa | 0 mm | - | - | - |
* Rain latest hour (hover to see other rain measurements)
** Current wind speed in m/s (hover to see current wind gust speed)